EFW33LD EGKK-LFBD

Flight info

Callsign EFW33LD
Flight time N/A
Altitude 33000
Route SFD Y47 DRAKE L151 SITET UN859 SOPIL DCT BALAN DCT LMG
Aircraft A320/M-SDE3FGHIRWY/LB1

Departure

Time 2026-04-19 06:53
Airport London Gatwick Airport (EGKK)

Arrival

Time N/A
Airport Bordeaux–Mérignac Airport (LFBD)
Time Latitude Longitude Altitude Speed Heading
2026-04-19 06:37 51.15487 -0.16965 185 ft 0 kts 348°
2026-04-19 06:45 51.15486 -0.16965 185 ft 0 kts 348°
2026-04-19 06:46 51.15478 -0.16962 185 ft 2 kts 348°
2026-04-19 06:46 51.15464 -0.16958 184 ft 2 kts 349°
2026-04-19 06:46 51.15449 -0.16952 184 ft 2 kts 354°
2026-04-19 06:47 51.15435 -0.16961 184 ft 2 kts 50°
2026-04-19 06:47 51.15430 -0.16973 183 ft 1 kts 77°
2026-04-19 06:47 51.15429 -0.16985 183 ft 0 kts 79°
2026-04-19 06:49 51.15429 -0.16986 183 ft 0 kts 79°
2026-04-19 06:50 51.15429 -0.16983 183 ft 2 kts 79°
2026-04-19 06:50 51.15445 -0.16865 186 ft 11 kts 78°
2026-04-19 06:50 51.15442 -0.16756 190 ft 8 kts 128°
2026-04-19 06:51 51.15388 -0.16712 190 ft 9 kts 166°
2026-04-19 06:51 51.15321 -0.16685 190 ft 10 kts 165°
2026-04-19 06:51 51.15249 -0.16657 191 ft 10 kts 167°
2026-04-19 06:51 51.15179 -0.16631 193 ft 10 kts 166°
2026-04-19 06:52 51.15136 -0.16694 191 ft 10 kts 258°
2026-04-19 06:52 51.15112 -0.16894 185 ft 42 kts 256°
2026-04-19 06:52 51.14993 -0.17738 195 ft 111 kts 258°
2026-04-19 06:52 51.14782 -0.19258 209 ft 165 kts 261°
2026-04-19 06:53 51.14513 -0.21116 638 ft 179 kts 261°
2026-04-19 06:53 51.14266 -0.22930 1412 ft 175 kts 263°
2026-04-19 06:53 51.14014 -0.24796 2135 ft 175 kts 264°
2026-04-19 06:53 51.13763 -0.26745 2572 ft 190 kts 263°
2026-04-19 06:54 51.13482 -0.28880 3017 ft 207 kts 263°
2026-04-19 06:54 51.13166 -0.31224 3382 ft 229 kts 262°
2026-04-19 06:54 51.12817 -0.33742 4083 ft 237 kts 261°
2026-04-19 06:54 51.12460 -0.36275 4994 ft 236 kts 261°
2026-04-19 06:55 51.12101 -0.38817 5889 ft 237 kts 261°
2026-04-19 06:55 51.11617 -0.41293 6717 ft 241 kts 241°
2026-04-19 06:55 51.10394 -0.43019 7571 ft 246 kts 203°
2026-04-19 06:55 51.08685 -0.43278 8413 ft 251 kts 171°
2026-04-19 06:56 51.06946 -0.42555 9024 ft 262 kts 160°
2026-04-19 06:56 51.05348 -0.41037 9471 ft 279 kts 136°
2026-04-19 06:56 51.04029 -0.38693 9922 ft 294 kts 128°
2026-04-19 06:56 51.02710 -0.36111 10457 ft 307 kts 128°
2026-04-19 06:57 51.01323 -0.33447 11213 ft 311 kts 129°
2026-04-19 06:57 50.99884 -0.30762 11984 ft 314 kts 130°
2026-04-19 06:57 50.98447 -0.28130 12717 ft 318 kts 131°
2026-04-19 06:57 50.96976 -0.25457 13437 ft 322 kts 131°
2026-04-19 06:58 50.95484 -0.22755 14140 ft 326 kts 131°
2026-04-19 06:58 50.93956 -0.19988 14839 ft 330 kts 131°
2026-04-19 06:58 50.92462 -0.17286 15495 ft 334 kts 131°
2026-04-19 06:58 50.90917 -0.14489 16164 ft 338 kts 131°
2026-04-19 06:59 50.89373 -0.11701 16796 ft 341 kts 132°
2026-04-19 06:59 50.87782 -0.08853 17440 ft 345 kts 132°
2026-04-19 06:59 50.86208 -0.06038 18052 ft 348 kts 132°
2026-04-19 06:59 50.84594 -0.03144 18672 ft 352 kts 132°
2026-04-19 07:00 50.82985 -0.00254 19237 ft 355 kts 132°
2026-04-19 07:00 50.81332 0.02714 19795 ft 359 kts 132°
2026-04-19 07:00 50.79688 0.05664 20338 ft 363 kts 132°
2026-04-19 07:00 50.77999 0.08639 20868 ft 366 kts 137°
2026-04-19 07:01 50.75917 0.10867 21358 ft 363 kts 164°
2026-04-19 07:01 50.73481 0.11462 21817 ft 356 kts 190°
2026-04-19 07:01 50.71081 0.10678 22097 ft 360 kts 200°
2026-04-19 07:01 50.68596 0.09632 22340 ft 373 kts 200°
2026-04-19 07:02 50.66090 0.08625 22676 ft 381 kts 199°
2026-04-19 07:02 50.63493 0.07631 23161 ft 386 kts 199°
2026-04-19 07:02 50.60895 0.06669 23671 ft 389 kts 198°
2026-04-19 07:02 50.58237 0.05702 24164 ft 392 kts 198°
2026-04-19 07:03 50.55582 0.04743 24652 ft 396 kts 199°
2026-04-19 07:03 50.52881 0.03771 25165 ft 398 kts 199°
2026-04-19 07:03 50.50204 0.02808 25657 ft 400 kts 199°
2026-04-19 07:03 50.47470 0.01827 26123 ft 403 kts 199°
2026-04-19 07:04 50.44762 0.00856 26576 ft 406 kts 199°
2026-04-19 07:04 50.42003 -0.00135 27016 ft 409 kts 199°
2026-04-19 07:04 50.39215 -0.01134 27457 ft 411 kts 199°
2026-04-19 07:04 50.36450 -0.02123 27876 ft 414 kts 199°
2026-04-19 07:05 50.33627 -0.03132 28273 ft 417 kts 199°
2026-04-19 07:05 50.30777 -0.04147 28654 ft 419 kts 199°
2026-04-19 07:05 50.27967 -0.05148 29024 ft 422 kts 199°
2026-04-19 07:05 50.25083 -0.06152 29379 ft 425 kts 196°
2026-04-19 07:06 50.22118 -0.06552 29735 ft 436 kts 184°
2026-04-19 07:06 50.19099 -0.06001 30191 ft 443 kts 172°
2026-04-19 07:06 50.16179 -0.04520 30641 ft 448 kts 161°
2026-04-19 07:06 50.13331 -0.02529 31067 ft 447 kts 160°
2026-04-19 07:07 50.10490 -0.00664 31389 ft 445 kts 164°
2026-04-19 07:07 50.07569 0.00880 31685 ft 443 kts 168°
2026-04-19 07:07 50.04590 0.02126 31957 ft 443 kts 171°
2026-04-19 07:07 50.01634 0.03289 32213 ft 444 kts 171°
2026-04-19 07:08 49.98605 0.04471 32449 ft 446 kts 171°
2026-04-19 07:08 49.96108 0.05447 32661 ft 447 kts 171°
2026-04-19 07:08 49.93058 0.06640 32931 ft 448 kts 170°